Regional Weather Roundup
Issued by NWS

Home | Current Version | Previous Version | Text Only | Print | Product List | Glossary Off
Versions: 1 2 3 4 5 6 7 8 9 10 11 12 13 14 15 16 17 18 19 20 21 22 23 24 25 26 27 28

000
ASUS45 KTFX 100410
RWRMT
MONTANA REGIONAL WEATHER ROUNDUP
NATIONAL WEATHER SERVICE GREAT FALLS MT
900 PM MST FRI DEC 09 2016

NOTE: "FAIR" INDICATES FEW OR NO CLOUDS BELOW 12000 FEET WITH NO
SIGNIFICANT WEATHER AND/OR OBSTRUCTIONS TO VISIBILITY.

MTZ001>007-043-100500-
WEST OF THE DIVIDE

CITY           SKY/WX    TMP DP  RH WIND       PRES   REMARKS
KALISPELL      LGT SNOW  10   5  80 N9        30.02F WCI  -3
MISSOULA       LGT SNOW  16  13  88 CALM      30.00F FOG
BUTTE          LGT SNOW  20  16  84 CALM      29.88F FOG
MULLAN PASS    LGT SNOW  17  14  88 S7        29.77F VSB 3/4 WCI   8
ANACONDA         N/A     18  12  79 NE3       29.89S
DEER LODGE       N/A     12   7  79 NE5       29.95S
EUREKA           N/A      7   1  78 CALM      30.09F
HAMILTON         N/A     16  10  79 CALM      29.97F
LIBBY            N/A     12   9  85 CALM      30.05F
$$

MTZ008-052>055-100500-
SOUTHWEST MONTANA

CITY           SKY/WX    TMP DP  RH WIND       PRES   REMARKS
BOZEMAN        LGT SNOW   9   5  84 CALM      29.98F FOG
DILLON         CLOUDY    13   9  84 CALM      29.91F
W YELLOWSTONE  CLOUDY    25  23  93 SE8       29.94F WCI  16
ENNIS          CLOUDY    25  19  80 CALM      29.93S
THREE FORKS      N/A     10 -32  13 CALM      29.98F
$$

MTZ009-010-012-014-046-048-049-054-100500-
EAST SLOPES AND CENTRAL MONTANA

CITY           SKY/WX    TMP DP  RH WIND       PRES   REMARKS
CUT BANK       MOCLDY    -2  -6  83 SE8       30.03F WCI -17
GREAT FALLS    CLOUDY     0  -5  79 NE5       30.04F
MALMSTROM AFB  CLOUDY     0  -3  87 NE2       30.08F
HELENA         CLOUDY     6   0  76 SE3       30.03F
AUGUSTA        MOCLDY    -6 -10  82 N3        29.95F
BOWMANS CRNR   MOCLDY    -6  -9  86 SW1       29.94F
CHOTEAU          N/A     -4  -8  84 MISG      30.04F
FAIRFIELD      MOCLDY    -4  -8  81 E5        30.02F
POWER          MOCLDY    -1  -5  85 NE6       30.03F WCI -13
RAYNESFORD     MOCLDY     1  -4  78 SE9       30.01F WCI -14
ULM            MOCLDY    -2  -6  82 N10       30.05F WCI -19
$$

MTZ011-013-016-021-045-047-050-051-100500-
NORTH CENTRAL MONTANA

CITY           SKY/WX    TMP DP  RH WIND       PRES   REMARKS
HAVRE          CLOUDY     3  -2  79 E9        30.18F WCI -12
LEWISTOWN      CLOUDY     3  -2  79 E7        30.00F WCI  -9
N BAR RANCH    CLOUDY     3  -4  72 CALM      30.01F
CHINOOK          N/A      1  -2  85 E12G17    30.22F WCI -15
DENTON         FLURRIES   5   1  84 MISG      30.02F
FORT BENTON      N/A      5   0  78 N3        30.15F
GEYSER         CLOUDY     1  -3  84 NE1       30.01F
GRASS RANGE    MOCLDY     3   0  87 W5        30.01F
JUDITH GAP     CLOUDY     2  -2  85 MISG      29.99F
ROY            FLURRIES   4   1  90 MISG      30.05F
STANFORD       CLOUDY    -1  -3  87 N5        29.97F
WINIFRED       FLURRIES   4   2  88 MISG      30.04F
$$

MTZ017>020-022>027-061-062-100500-
NORTHEAST MONTANA

CITY           SKY/WX    TMP DP  RH WIND       PRES   REMARKS
GLASGOW        CLOUDY    -3  -8  79 E18G24    30.31F WCI -25
JORDAN           N/A      1  -4  79 E8        30.25S WCI -13
SIDNEY         CLOUDY   -14 -18  82 N3        30.45F
WOLF POINT     CLOUDY    -6 -13  71 E10       30.41F WCI -24
PLENTYWOOD       N/A    -13 -17  84 E3        30.40F
POPLAR           N/A     -9 -15  77 E5        30.43F
$$

MTZ028>42-056>058-100500-
SOUTHCENTRAL AND SOUTHEAST MONTANA

CITY           SKY/WX    TMP DP  RH WIND       PRES   REMARKS
BAKER          CLOUDY    -6 -10  83 SE13      30.28F WCI -25
BILLINGS       FLURRIES   5   2  87 NE5       30.10F
LIVINGSTON     LGT SNOW   7   2  80 E5        29.99F
MILES CITY     CLOUDY     4  -3  73 NE8       30.28F WCI  -9
BIG TIMBER     CLOUDY     5   1  85 SE5       30.05S FOG
FORSYTH          N/A      3   0  85 E8        30.23F WCI -10
HARLOWTON      CLOUDY     2  -1  88 SE5       30.03F
$$

REGIONAL REPORTS...DAKOTAS

CITY           SKY/WX    TMP DP  RH WIND       PRES   REMARKS
WILLISTON      CLOUDY   -14 -20  74 NE3       30.46F
MINOT          CLOUDY   -12 -18  74 W6        30.48F WCI -26
DICKINSON      CLOUDY   -17 -22  78 S5        30.35F
BEACH          CLOUDY    -8 N/A N/A SE8       30.36F WCI -23
CROSBY           N/A    -18 -24  76 SW7       30.48F WCI -35
TIOGA            N/A    -17 -20  83 CALM      30.43S
WATFORD CITY     N/A    -18 -24  76 CALM      30.44F
BISMARCK       CLOUDY   -15 -19  82 CALM      30.52S
GRAND FORKS    CLOUDY    -4 -10  75 NW7       30.56S WCI -18
FARGO          CLOUDY    -4 -12  68 NW10      30.57R WCI -21
BUFFALO SD       N/A     -4  -8  83 E8        30.20F WCI -19
RAPID CITY     LGT SNOW   1  -3  83 SE10      30.28F FOG     WCI -15
$$

REGIONAL REPORTS...WYOMING/IDAHO/WASHINGTON

CITY           SKY/WX    TMP DP  RH WIND       PRES   REMARKS
GILLETTE       CLOUDY     9   4  80 CALM      30.07F
SHERIDAN       LGT SNOW  11   6  81 SE6       30.07F WCI   1
BUFFALO WY     CLOUDY     7   0  73 SE5       30.01F
CODY           CLOUDY    11   3  70 CALM      29.97F
YELLOWSTONE LA   N/A     25  21  85 VRB3      29.92F
IDAHO FALLS    LGT SNOW  26  23  88 CALM      30.01F FOG
SALMON         CLOUDY    18  16  93 CALM      29.99F
BOISE          FOG       30  29  96 NW7       30.00S VSB 1   WCI  23
SPOKANE        LGT SNOW  19  16  88 NE8       29.95F VSB 1   WCI   9
$$

REGIONAL REPORTS...ALBERTA

CITY           SKY/WX    TMP DP  RH WIND       PRES   REMARKS
EDMONTON       CLEAR    -13 -20  70 SE6       30.23F WCI -27
CALGARY        CRYSTALS  -9 -15  77 S9        30.03F WCI -27
LETHBRIDGE     FLURRIES   0  -4  85 SE8       30.10F WCI -15
MEDICINE HAT   CLEAR     -8 -13  77 NE5       30.23F
WATERTON GATE    N/A     -9 -13  84 CALM        N/A
CARDSTON         N/A     -8 -15  71 SW5         N/A
MILK RIVER       N/A      0  -4  85 S9          N/A  WCI -16
$$

REGIONAL REPORTS...SASKATCHEWAN

CITY           SKY/WX    TMP DP  RH WIND       PRES   REMARKS
SWIFT CURRENT  FLURRIES  -2  -8  78 SE10      30.25F WCI -19
REGINA         CLEAR    -17 -20  83 S6        30.43F WCI -31
SASKATOON      CRYSTALS  -9 -15  77 E3        30.46F
CYPRESS HILLS    N/A     -8 -13  77 SE9         N/A  WCI -25
VAL MARIE        N/A     -2  -6  84 SE13        N/A  WCI -21
ROCKGLEN         N/A     -8 -11  84 SE7         N/A  WCI -22
ASSINIBOIA       N/A    -11 -17  77 SE7         N/A  WCI -26
$$




USA.gov is the U.S. government's official web portal to all federal, state and local government web resources and services.